Location: ??????
(42.0089°N, 44.3281°E)
Time: 00:38:56
(UTC+00:00)

Cosmos 2251 Rocket - Pass Details

Date: 01 June 2022
Orbit: 764 x 791 km, 74.0° (Epoch: 03 July)

Event Time Altitude Azimuth Distance (km) Brightness Sun altitude
Rises 23:45:00 0° 325° (NW) 3,254 7.0 -15.4°
Reaches altitude 10° 23:47:53 10° 310° (NW) 2,327 6.0 -15.1°
Maximum altitude 23:51:45 21° 263° (W) 1,694 4.9 -14.6°
Enters shadow 23:52:59 19° 244° (WSW) 1,769 4.8 -14.5°
